Regional Weather Roundup
Issued by NWS Wakefield, VA

Home | Current Version | Previous Version | Graphics & Text | Print | Product List | Glossary On
Versions: 1 2 3 4 5 6 7 8 9 10 11 12 13 14 15 16 17 18 19 20 21 22 23 24 25 26 27 28 29 30 31 32 33 34 35 36 37 38 39 40 41 42 43 44 45 46 47 48 49 50
000
ASUS41 KAKQ 030515
RWRAKQ

REGIONAL WEATHER ROUNDUP
NATIONAL WEATHER SERVICE WAKEFIELD VA
100 AM EDT MON AUG 03 2015

Note: "fair" indicates few or no clouds below 12,000 feet with no
significant weather and/or obstructions to visibility. * = Denotes
station may not report precipitation (e.g., rain,snow,etc.),
thunder or fog.

VAZ042-051-052>054-056-030600-
NORTHERN VIRGINIA

CITY           SKY/WX    TMP DP  RH WIND       PRES   REMARKS
WASH NATIONAL  CLEAR     76  66  71 S7        29.90S
DULLES         CLEAR     68  63  84 S7        29.90S
FORT BELVOIR   NOT AVBL
QUANTICO       NOT AVBL
FREDERICKSBRG* CLEAR     68  68  99 CALM      29.91S
STAFFORD*      CLEAR     62  61  97 CALM      29.95S
WARRENTON      CLEAR     63  63 100 CALM      29.91S
CULPEPER*      CLEAR     63  62  98 CALM      29.92F
MANASSAS*      CLEAR     66  64  94 CALM      29.91S
LEESBURG*      CLEAR     70  64  83 SW5       29.90F
WINCHESTER     CLEAR     72  61  68 SW5       29.90F
FRONT ROYAL*   FAIR      68  61  77 S6        29.90F
LURAY*         FAIR      70  63  78 S5        29.93F
$$

VAZ048-049-060>072-079>083-030600-
CENTRAL AND SOUTH CENTRAL VIRGINIA

CITY           SKY/WX    TMP DP  RH WIND       PRES   REMARKS
RICHMOND       PTCLDY    71  64  78 SE3       29.93S
CHESTERFIELD*  FAIR      64  52  63 CALM      29.95S
PETERSBURG*    PTCLDY    68  68 100 S3        29.95S
HANOVER        CLEAR     65  63  93 CALM      29.94S
TAPPAHANNOCK*  CLEAR     66  63  90 CALM      29.93S
QUINTON*       FAIR      67  66  95 CALM      29.92F
CHARLOTTSVILLE CLEAR     68  64  87 CALM      29.94S
GORDONSVILLE*  FAIR      63  63 100 CALM      29.93S
ORANGE*        CLEAR     64  63  94 CALM      29.94S
LOUISA*        CLEAR     63  61  94 CALM      29.92F
BUMPASS*       FAIR      63  62  96 CALM      29.92S
FARMVILLE*     CLEAR     61  61 100 CALM      29.94S
CREWE*         FAIR     N/A N/A N/A CALM      29.95S
FORT PICKETT*  FAIR      65  62  89 CALM      29.96R
CHASE CITY*    MOCLDY    68  66  94 CALM      29.96S
CLARKSVILLE*   FAIR      66  64  94 CALM      29.95S
SOUTH HILL*    CLEAR     66  63  90 CALM      30.01S
LAWRENCEVILLE* FAIR      66  64  94 CALM      29.94F
EMPORIA*       CLEAR     64  64 100 CALM      29.95F
$$

VAZ088>098-030600-
SOUTHEAST VIRGINIA

CITY           SKY/WX    TMP DP  RH WIND       PRES   REMARKS
NORFOLK        MOCLDY    76  73  91 SW5       29.92S
VIRGINIA BEACH MOCLDY    77  74  90 CALM      29.92R
NORFOLK NAVAL  PTCLDY    73  71  93 SW5       29.94R
WEST POINT*    PTCLDY    69  66  90 CALM      29.93F
SALUDA*        FAIR      68  67  95 CALM      29.92S
NEWPORT NEWS   PTCLDY    69  68  96 CALM      29.93S
LANGLEY AFB    PTCLDY    71  69  92 W2        29.93R
FORT EUSTIS    PTCLDY    72  72 100 N2        29.91S
WILLIAMSBURG*  PTCLDY    73  72  94 CALM      29.94S
HR EXEC AP*    FAIR      68  64  88 CALM      29.96R
FRANKLIN*      PTCLDY    72  69  91 CALM      29.94F
WAKEFIELD      PTCLDY    69  66  90 CALM      29.94S FOG
$$

VAZ020-022-025-037-045-030600-
WEST CENTRAL AND SOUTHWEST VIRGINIA

CITY           SKY/WX    TMP DP  RH WIND       PRES   REMARKS
STAUNTON*      CLEAR     64  59  85 CALM      29.98S
WAYNESBORO*    FAIR      64  57  79 SW5       29.98S
HOT SPRINGS VA CLEAR     65  48  53 S6        30.08S
LYNCHBURG      CLEAR     62  61  96 CALM      29.98S
DANVILLE       CLEAR     65  63  93 CALM      29.96R
SOUTH BOSTON*  FAIR      64  62  95 CALM      29.96R
MARTINSVILLE   PTCLDY    62  62 100 S5        30.01R
ROANOKE        CLEAR     66  58  75 CALM      30.00S
BLACKSBURG     CLEAR     60  58  92 CALM      30.06S
DUBLIN*          N/A     61  59  91 CALM      30.04S
MARION*        MOCLDY    65  57  75 CALM      30.07R
HILLSVILLE*    CLEAR     66  57  72 CALM      30.04S
RICHLANDS*     MOCLDY    69  57  65 SE3       30.04R
WISE*          MOCLDY    68  54  60 CALM      30.04S
ABINGDON*      CLOUDY    70  59  68 CALM      30.01R
$$

MDZ021>025-VAZ099-100-030600-
SOUTHERN MARYLAND AND THE DELMARVA PENINSULA

CITY           SKY/WX    TMP DP  RH WIND       PRES   REMARKS
PATUXENT RIVER CLEAR     70  64  81 S5        29.90F
BAY BRIDGE APT   N/A     75  63  64 S5        29.89S
LEONARDTOWN    CLEAR     66  63  88 CALM      29.93S
DOVER          CLEAR     71  70  95 S5        29.88F
GEORGETOWN     CLEAR     70  68  93 SW3       29.91F
EASTON         CLEAR     73  66  80 CALM      29.93F
CAMBRIDGE      CLEAR     66  63  88 CALM      29.90F
SALISBURY      CLEAR     71  70  96 CALM      29.91F
OCEAN CITY     CLEAR     69  68  96 CALM      29.91S FOG
WALLOPS ISLAND CLEAR     73  72  96 CALM      29.92F
ACCOMACK*      HAZE      70  63  78 CALM      29.92F VSB 1/2
$$

NCZ012>017-030>032-030600-
NORTH CENTRAL AND EASTERN NORTH CAROLINA

CITY           SKY/WX    TMP DP  RH WIND       PRES   REMARKS
ROANOKE RAPIDS FAIR      66  63  88 CALM      29.94F
RALEIGH        PTCLDY    72  62  71 CALM      29.95S
ELIZABETH CITY PTCLDY    73  70  90 S3        29.94S
AHOSKIE*       PTCLDY    70  66  87 CALM      29.94S
EDENTON*       PTCLDY    73  70  92 CALM      29.95R
CURRITUCK*     PTCLDY    76  70  83 W3        29.94S
KILL DEVIL HLS PTCLDY    79  73  80 SW5       29.94R
MANTEO         PTCLDY    79  74  85 SW12      29.95S
CAPE HATTERAS  PTCLDY    79  74  84 SW10      29.96S
TARBORO*         N/A     71  69  95 CALM      29.95S FOG
GOLDSBORO      CLEAR     76  73  92 S2        29.93S
WASHINGTON     CLEAR     75  72  89 CALM      29.95F
GREENVILLE     PTCLDY    77  73  88 SW3       29.97S
NEW BERN       PTCLDY    73  70  90 CALM      29.96F
WILMINGTON     MOCLDY    78  72  81 SW15      29.94F
$$

VAZ048-030600-
ELSEWHERE

CITY           SKY/WX    TMP DP  RH WIND       PRES   REMARKS
HARRISBURG PA  PTCLDY    75  63  66 S9        29.86S
BALTIMORE      CLEAR     71  60  68 SW5       29.89R
ANNAPOLIS      CLEAR     73  61  65 CALM      29.89S
ANDREWS AFB    CLEAR     69  63  80 S6        29.90S
PHILADELPHIA   PTCLDY    77  63  61 SW7       29.89S
HENDERSON NC   CLEAR     70  59  68 CALM      29.96S
GREENSBORO     MOCLDY    74  58  57 SE6       29.96S
ROCKY MOUNT    PTCLDY    78  70  76 SW6       29.95S
$$

VAZ100-030600-
MARINE

STATION/POSITION TIME  TEMP    WIND        PRES    WAVE   SWELL
                       AIR SEA DIR/SP/G            HT/PER HT/PER
                 (UTC) (F)     (DEG/KT/KT) (MB)    (FT/S) (FT/S)
BRANDYWINE LGT   0400   74 72  210/ 11/ 11 1012.8F
CAPE MAY NJ      0400   72 76  150/  4/  5 1012.3F
LEWES DE         0400   74 76  190/  5/  7 1012.5F
15NM E FENWICK I 0450   79 80  210/  8/ 10 1012.9F   2/ 7   2/ 7
OCEAN-CITY-INLET 0400   76 77  230/  4/  5 1012.2F
WACHAPREAGUE VA  0400   73 84  310/  1/  2 1013.4R
GOOSES REEF MD   0500   80 81  220/  8/ 10 1013.5F
COVE POINT MD    0400   78     250/  6/  8 1013.5F
SOLOMONS ISLAND  0400      85                N/A
BISHOPS HEAD MD  0400   82 83  230/  6/  8 1011.9F
PINEY POINT MD   0400          240/  3/  5   N/A
POTOMAC MD       0500   80 83  240/  8/  8 1011.7F
CAMBRIDGE MD     0400   74 85  210/  3/  4 1012.0F
LEWISETTA VA     0400   77 85  250/  4/  4 1012.7F
RAPPAHANNOCK LGT 0400          130/  4/  5 1013.8R
STINGRAY PT      0500   80 83  230/  2/  4 1013.2S   0
YORK RVR RNG VA  0400   81     130/  2/  3 1012.7R
YORKTOWN VA      0400   75 84  230/  2/  3 1012.9R
JAMESTOWN VA     0500   77 86  210/  4/  6   N/A
DOMINION TERM VA 0400   81     150/  7/  9 1013.0R
KIPTOPEKE VA     0400      82  120/  2/  2   N/A
CHES BAY BRIDGE  0400   80 80  120/  3/  6 1012.6R
CAPE HENRY VA    0400   78     120/  4/  4   N/A
CHESAPEAKE LGHT  0400   80      CALM  /  1 1013.7F
WILLOUBY STN VA  0400   80      20/  2/  2 1014.2R
CAPE HENRY BUOY  0428      82                N/A     2/12   2/12
1ST LANDING BUOY 0500      79              1012.9R   1/ 5
CAPE CHARLES BUO 0426      80                N/A     2/13   2/13
OFFSHORE WE BUOY 0411      83                N/A     3/12   2/12
64NM E OF VA BCH 0450   82 81  210/ 12/ 14 1013.0F   3/11   2/11
DUCK PIER NC     0400   81 71  230/ 11/ 13 1012.8S
44100 DUCK FRF   0424      80                N/A     2/ 5   2/12
44056 DUCK FRF   0411      79                N/A     2/11   2/11
OREGON INLET NC  0400   80 86  240/ 12/ 14 1014.1R
HATTERAS NC      0400   79 83  220/  8/ 10 1014.2R
DIAMOND SHLS NC  0450   82 85  220/ 14/ 16 1014.2F   3/ 4   2/ 8
CAPE LOOKOUT NC  0500   76     190/ 10/ 13 1013.8F


USA.gov is the U.S. government's official web portal to all federal, state and local government web resources and services.